Location: Arborea
(39.7744°N, 8.5819°E)
Time: 20:12:59
(UTC+00:00)

CZ-2C DEB - Visible Passes

Search period start: 27 February 2024 00:00
Search period end: 08 March 2024 00:00
Orbit: 676 x 914 km, 97.9° (Epoch: 26 February)

Date Brightness Start Highest point End Pass type
(mag) Time Alt. Az. Time Alt. Az. Time Alt. Az.
27 Feb ? 04:13:09 10° ESE 04:17:19 21° ENE 04:21:21 10° NNE visible
27 Feb ? 18:05:52 10° NNE 18:10:41 65° E 18:15:16 10° S visible
27 Feb ? 19:47:28 10° NNW 19:49:43 13° WNW 19:51:56 10° W visible
28 Feb ? 03:47:35 10° E 03:49:40 12° ENE 03:51:44 10° NE visible
28 Feb ? 05:22:46 10° SSE 05:28:33 85° ENE 05:34:06 10° N visible
28 Feb ? 17:38:12 10° NNE 17:42:31 33° E 17:46:39 10° SSE visible
28 Feb ? 19:18:12 10° NNW 19:22:01 24° WNW 19:25:42 10° WSW visible
29 Feb ? 04:55:08 10° SE 05:00:37 49° ENE 05:05:53 10° N visible
29 Feb ? 18:49:38 10° N 18:54:10 44° WNW 18:58:32 10° SW visible
01 Mar ? 04:28:01 10° SE 04:32:47 28° ENE 04:37:22 10° N visible
01 Mar ? 18:21:24 10° NNE 18:26:11 85° WNW 18:30:47 10° SSW visible
02 Mar ? 04:01:37 10° E 04:05:02 17° ENE 04:08:21 10° NNE visible
02 Mar ? 17:53:29 10° NNE 17:58:04 48° E 18:02:30 10° S visible
02 Mar ? 19:34:22 10° NNW 19:37:19 17° WNW 19:40:12 10° WSW visible
03 Mar ? 05:10:30 10° SSE 05:16:08 68° ENE 05:21:30 10° N visible
03 Mar ? 19:05:25 10° N 19:09:31 30° WNW 19:13:30 10° SW visible
04 Mar ? 04:43:02 10° SE 04:48:12 38° ENE 04:53:08 10° N visible
04 Mar ? 18:36:57 10° N 18:41:34 57° WNW 18:46:03 10° SSW visible
05 Mar ? 04:16:09 10° ESE 04:20:21 22° ENE 04:24:24 10° NNE visible
05 Mar ? 18:08:48 10° NNE 18:13:30 73° ESE 18:18:04 10° S visible
05 Mar ? 19:51:04 10° NW 19:52:30 11° WNW 19:53:55 10° W visible
06 Mar ? 03:50:19 10° E 03:52:36 13° ENE 03:54:50 10° NE visible
06 Mar ? 19:21:17 10° NNW 19:24:44 21° WNW 19:28:08 10° WSW visible
07 Mar ? 04:58:11 10° SSE 05:03:35 53° ENE 05:08:41 10° N visible
07 Mar ? 18:52:31 10° N 18:56:50 38° WNW 19:01:04 10° SW visible
